GW4674 Weather Reports


time (UTC)temp
C
wind
direction
speed
KPH
gust
KPH
rain 1hr
cm
rain 24hr
cm
rain mn
cm
humidity
%
barometer
mb
20260506143058 18 297 3.2 8.0 0.00 0.00 0.00 75 1016.1
20260506142555 18 178 3.2 4.8 0.00 0.00 0.00 76 1016.0
20260506142053 18 177 1.6 6.4 0.00 0.00 0.00 76 1016.0
20260506141551 18 189 3.2 6.4 0.00 0.00 0.00 78 1016.2
20260506141049 18 220 3.2 4.8 0.00 0.00 0.00 78 1016.1
20260506140546 17 133 0.0 6.4 0.00 0.00 0.00 78 1016.2
20260506140044 17 36 6.4 11.3 0.00 0.00 0.00 78 1016.0
20260506135540 17 358 3.2 9.7 0.00 0.00 0.00 77 1016.0
20260506135036 17 243 3.2 9.7 0.00 0.00 0.00 78 1016.0
20260506134533 17 243 0.0 6.4 0.00 0.00 0.00 79 1016.1
20260506134029 17 218 0.0 6.4 0.00 0.00 0.00 80 1016.3
20260506133526 17 180 4.8 9.7 0.00 0.00 0.00 80 1016.2
20260506133023 17 174 3.2 4.8 0.00 0.00 0.00 81 1016.1
20260506132520 17 177 6.4 6.4 0.00 0.00 0.00 81 1016.0
20260506132018 17 83 1.6 9.7 0.00 0.00 0.00 83 1016.0
20260506131515 16 218 9.7 9.7 0.00 0.00 0.00 83 1015.8
20260506131011 16 231 4.8 8.0 0.00 0.00 0.00 84 1015.8
20260506130508 16 169 3.2 8.0 0.00 0.00 0.00 84 1016.1
20260506130006 16 288 0.0 8.0 0.00 0.00 0.00 85 1015.9
20260506125504 16 224 1.6 6.4 0.00 0.00 0.00 85 1015.8
20260506125001 16 237 1.6 4.8 0.00 0.00 0.00 85 1016.0
20260506124459 16 218 3.2 4.8 0.00 0.00 0.00 85 1016.1
20260506123956 16 247 4.8 8.0 0.00 0.00 0.00 85 1016.2
20260506123454 16 142 3.2 8.0 0.00 0.00 0.00 85 1016.1
20260506122951 15 199 3.2 9.7 0.00 0.00 0.00 87 1016.0
20260506122448 15 226 3.2 8.0 0.00 0.00 0.00 87 1016.3
20260506121946 15 177 4.8 4.8 0.00 0.00 0.00 88 1016.4
20260506121443 15 181 3.2 4.8 0.00 0.00 0.00 89 1016.6
20260506120940 15 173 6.4 6.4 0.00 0.00 0.00 89 1016.7
20260506120438 15 104 0.0 6.4 0.00 0.00 0.00 89 1016.6
20260506115935 14 158 4.8 4.8 0.00 0.00 0.00 90 1016.5
20260506115433 14 13 0.0 6.4 0.00 0.00 0.00 91 1016.5
20260506114931 14 216 6.4 8.0 0.00 0.00 0.00 91 1016.7
20260506114428 13 186 3.2 9.7 0.00 0.00 0.00 92 1016.6
20260506113927 13 222 1.6 6.4 0.00 0.00 0.00 93 1016.4
20260506113424 13 174 3.2 6.4 0.00 0.00 0.00 94 1016.4
20260506112920 13 151 3.2 4.8 0.00 0.00 0.00 95 1016.4
20260506112418 13 174 1.6 4.8 0.00 0.00 0.00 95 1016.4
20260506111915 13 187 4.8 6.4 0.00 0.00 0.00 95 1016.5
20260506111413 13 178 3.2 4.8 0.00 0.00 0.00 95 1016.6
20260506110910 12 225 3.2 4.8 0.00 0.00 0.00 96 1016.9
20260506110408 12 207 4.8 6.4 0.00 0.00 0.00 96 1016.6
20260506105904 12 195 3.2 4.8 0.00 0.00 0.00 96 1016.5
20260506105400 12 156 4.8 4.8 0.00 0.00 0.00 97 1016.7
20260506104858 12 220 3.2 4.8 0.00 0.00 0.00 97 1016.7
20260506104355 12 194 3.2 6.4 0.00 0.00 0.00 97 1016.7
20260506103853 12 243 3.2 3.2 0.00 0.00 0.00 97 1016.5
20260506103350 12 148 3.2 4.8 0.00 0.00 0.00 97 1016.5
20260506102847 12 147 3.2 6.4 0.00 0.00 0.00 97 1016.5
20260506102346 12 151 6.4 8.0 0.00 0.00 0.00 97 1016.4
20260506101842 12 122 4.8 11.3 0.00 0.00 0.00 97 1016.4
20260506101338 12 108 4.8 6.4 0.00 0.00 0.00 97 1016.4
20260506100836 12 155 4.8 6.4 0.00 0.00 0.00 97 1016.4
20260506100335 12 169 4.8 6.4 0.00 0.00 0.00 97 1016.5
20260506095833 11 147 4.8 8.0 0.00 0.00 0.00 97 1016.3
20260506095329 11 229 3.2 6.4 0.00 0.00 0.00 97 1016.3
20260506094826 11 229 1.6 4.8 0.00 0.00 0.00 97 1016.2
20260506094325 12 197 1.6 6.4 0.00 0.00 0.00 97 1016.3
20260506093823 12 199 3.2 6.4 0.00 0.00 0.00 97 1016.3
20260506093319 12 216 3.2 6.4 0.00 0.00 0.00 96 1016.3
20260506092818 12 187 1.6 8.0 0.00 0.00 0.00 96 1016.3
20260506092315 12 128 0.0 6.4 0.00 0.00 0.00 96 1016.3
20260506091812 12 111 3.2 6.4 0.00 0.00 0.00 96 1016.1
20260506091309 12 156 1.6 6.4 0.00 0.00 0.00 96 1016.4
20260506090807 12 157 4.8 6.4 0.00 0.00 0.00 96 1016.2
20260506090304 12 151 4.8 6.4 0.00 0.00 0.00 96 1016.5
20260506085800 12 189 3.2 9.7 0.00 0.00 0.00 95 1016.4
20260506085257 12 167 4.8 6.4 0.00 0.00 0.00 95 1016.6
20260506084754 12 201 4.8 4.8 0.00 0.00 0.00 95 1016.5
20260506084250 12 143 4.8 4.8 0.00 0.00 0.00 95 1016.5
20260506083747 12 176 4.8 6.4 0.00 0.00 0.00 95 1016.6
20260506083245 12 145 3.2 8.0 0.00 0.00 0.00 95 1016.6
20260506082742 12 155 4.8 6.4 0.00 0.00 0.00 95 1016.6
20260506082237 12 146 3.2 4.8 0.00 0.00 0.00 95 1016.6
20260506081735 12 150 1.6 6.4 0.00 0.00 0.00 94 1016.7
20260506081232 12 189 3.2 9.7 0.00 0.00 0.00 94 1016.7
20260506080731 12 167 0.0 4.8 0.00 0.00 0.00 94 1016.7
20260506080227 12 170 4.8 6.4 0.00 0.00 0.00 94 1016.7
20260506073211 12 246 3.2 6.4 0.00 0.00 0.00 92 1016.8
20260506072707 12 170 4.8 6.4 0.00 0.00 0.00 91 1016.8
20260506072205 12 165 4.8 6.4 0.00 0.00 0.00 91 1016.9
20260506071702 13 205 3.2 4.8 0.00 0.00 0.00 91 1016.8
20260506071200 13 195 3.2 6.4 0.00 0.00 0.00 90 1016.8
20260506070657 13 221 6.4 6.4 0.00 0.00 0.00 90 1016.8
20260506070154 13 216 4.8 8.0 0.00 0.00 0.00 90 1016.7
20260506062131 13 173 0.0 4.8 0.00 0.00 0.00 87 1016.8
20260506061627 13 131 1.6 8.0 0.00 0.00 0.00 87 1016.8
20260506061125 13 181 4.8 6.4 0.00 0.00 0.00 87 1016.6
20260506060623 13 175 3.2 6.4 0.00 0.00 0.00 86 1016.7
20260506060120 14 126 3.2 6.4 0.00 0.00 0.00 86 1016.8
20260506051051 15 123 3.2 6.4 0.00 0.00 0.00 81 1017.0
20260506050549 15 113 3.2 4.8 0.00 0.00 0.00 80 1017.1
20260506045040 15 52 1.6 6.4 0.00 0.00 0.00 79 1017.2
20260506044538 15 136 0.0 6.4 0.00 0.00 0.00 78 1017.3
20260506044034 15 240 1.6 6.4 0.00 0.00 0.00 78 1017.3
20260506043531 15 211 3.2 4.8 0.00 0.00 0.00 77 1017.3
20260506043030 15 131 3.2 4.8 0.00 0.00 0.00 77 1017.0
20260506042529 15 101 3.2 4.8 0.00 0.00 0.00 76 1017.1
20260506042026 15 204 3.2 6.4 0.00 0.00 0.00 75 1017.1
20260506041525 15 148 6.4 8.0 0.00 0.00 0.00 75 1017.1
20260506041021 16 177 3.2 4.8 0.00 0.00 0.00 75 1017.0
20260506040519 16 174 3.2 6.4 0.00 0.00 0.00 74 1017.3
20260506040015 16 145 3.2 4.8 0.00 0.00 0.00 74 1017.0
20260506035512 16 168 3.2 6.4 0.00 0.00 0.00 74 1017.2
20260506035008 16 145 1.6 6.4 0.00 0.00 0.00 74 1017.1
20260506034506 16 109 1.6 6.4 0.00 0.00 0.00 73 1017.1
20260506034003 16 159 0.0 4.8 0.00 0.00 0.00 73 1017.3
20260506033500 16 102 1.6 4.8 0.00 0.00 0.00 73 1017.2
20260506032956 16 132 4.8 9.7 0.00 0.00 0.00 72 1017.1
20260506032454 16 170 1.6 8.0 0.00 0.00 0.00 72 1017.0
20260506031950 16 221 4.8 6.4 0.00 0.00 0.00 72 1017.0
20260506031448 16 175 4.8 8.0 0.00 0.00 0.00 72 1017.0
20260506030946 16 176 3.2 6.4 0.00 0.00 0.00 71 1016.9
20260506030443 17 112 1.6 6.4 0.00 0.00 0.00 70 1017.2
20260506025940 17 149 1.6 6.4 0.00 0.00 0.00 70 1017.2
20260506025437 17 167 6.4 6.4 0.00 0.00 0.00 69 1017.1
20260506024933 17 208 1.6 4.8 0.00 0.00 0.00 70 1017.0
20260506024430 17 158 6.4 9.7 0.00 0.00 0.00 70 1017.0
20260506023926 16 185 6.4 8.0 0.00 0.00 0.00 70 1017.1
20260506023423 17 114 3.2 8.0 0.00 0.00 0.00 69 1017.1
20260506022920 17 206 0.0 8.0 0.00 0.00 0.00 70 1017.0
20260506022418 17 144 3.2 4.8 0.00 0.00 0.00 70 1017.0
20260506021915 17 153 3.2 4.8 0.00 0.00 0.00 70 1016.9
20260506021413 17 102 3.2 6.4 0.00 0.00 0.00 68 1016.9
20260506020909 17 148 3.2 12.9 0.00 0.00 0.00 68 1016.9
20260506020407 17 168 6.4 6.4 0.00 0.00 0.00 68 1016.9
20260506015904 17 84 6.4 8.0 0.00 0.00 0.00 67 1016.8
20260506015402 17 240 1.6 8.0 0.00 0.00 0.00 67 1016.8
20260506014858 17 205 4.8 4.8 0.00 0.00 0.00 67 1016.8
20260506014355 17 237 6.4 6.4 0.00 0.00 0.00 66 1016.9
20260506013852 18 60 3.2 12.9 0.00 0.00 0.00 66 1016.7
20260506013350 18 231 4.8 9.7 0.00 0.00 0.00 65 1016.6
20260506012845 17 127 1.6 6.4 0.00 0.00 0.00 66 1016.4
20260506012343 18 207 6.4 8.0 0.00 0.00 0.00 65 1016.5
20260506011840 18 206 3.2 8.0 0.00 0.00 0.00 64 1016.4
20260506011336 18 144 0.0 6.4 0.00 0.00 0.00 65 1016.3
20260506010834 18 202 6.4 6.4 0.00 0.00 0.00 64 1016.3
20260506010332 18 64 4.8 8.0 0.00 0.00 0.00 63 1016.2
20260506005828 18 176 4.8 14.5 0.00 0.00 0.00 64 1016.2
20260506005325 18 212 8.0 8.0 0.00 0.00 0.00 63 1016.1
20260506004821 18 279 3.2 6.4 0.00 0.00 0.00 63 1016.0
20260506004319 18 170 6.4 8.0 0.00 0.00 0.00 64 1015.8
20260506003815 18 209 1.6 6.4 0.00 0.00 0.00 64 1015.8
20260506003312 18 166 3.2 14.5 0.00 0.00 0.00 63 1016.0
20260506002808 18 133 1.6 6.4 0.00 0.00 0.00 63 1015.8
20260506002306 18 155 4.8 6.4 0.00 0.00 0.00 63 1015.7
20260506001800 18 152 3.2 4.8 0.00 0.00 0.00 63 1015.4
20260506001258 18 171 1.6 6.4 0.00 0.00 0.00 63 1015.6
20260506000754 18 156 3.2 6.4 0.00 0.00 0.00 63 1015.7
20260506000254 18 48 0.0 6.4 0.00 0.00 0.00 63 1015.6
20260505235749 18 211 4.8 9.7 0.00 0.00 0.00 63 1015.3
20260505235246 18 132 3.2 6.4 0.00 0.00 0.00 62 1015.7
20260505234743 18 214 3.2 6.4 0.00 0.00 0.00 63 1015.2
20260505234241 19 161 3.2 6.4 0.00 0.00 0.00 61 1015.3
20260505233737 19 196 3.2 6.4 0.00 0.00 0.00 62 1015.2
20260505233235 19 35 3.2 6.4 0.00 0.00 0.00 61 1015.1
20260505232732 19 279 0.0 4.8 0.00 0.00 0.00 61 1015.1
20260505232230 19 185 4.8 6.4 0.00 0.00 0.00 59 1014.9
20260505231726 20 157 1.6 4.8 0.00 0.00 0.00 60 1015.0
20260505231225 20 156 3.2 6.4 0.00 0.00 0.00 59 1014.8
20260505230723 20 159 0.0 12.9 0.00 0.00 0.00 58 1014.7
20260505230219 20 185 4.8 4.8 0.00 0.00 0.00 58 1014.7
20260505225715 20 158 4.8 6.4 0.00 0.00 0.00 58 1014.7
20260505225213 20 163 3.2 6.4 0.00 0.00 0.00 57 1014.8
20260505224708 21 190 6.4 8.0 0.00 0.00 0.00 57 1014.6
20260505224206 21 170 3.2 6.4 0.00 0.00 0.00 57 1014.6
20260505223703 21 139 3.2 9.7 0.00 0.00 0.00 56 1014.6
20260505223159 21 2 1.6 6.4 0.00 0.00 0.00 55 1014.5
20260505222655 21 211 4.8 6.4 0.00 0.00 0.00 55 1014.4
20260505222151 21 218 3.2 14.5 0.00 0.00 0.00 54 1014.4
20260505221649 21 90 4.8 6.4 0.00 0.00 0.00 53 1014.7
20260505221145 21 253 3.2 12.9 0.00 0.00 0.00 53 1014.5
20260505220643 22 249 0.0 11.3 0.00 0.00 0.00 52 1014.7
20260505220140 22 185 3.2 6.4 0.00 0.00 0.00 53 1014.7
20260505215638 22 189 6.4 9.7 0.00 0.00 0.00 52 1014.5
20260505215136 22 143 3.2 9.7 0.00 0.00 0.00 52 1014.6
20260505214633 22 207 4.8 24.1 0.00 0.00 0.00 51 1014.5
20260505214130 23 149 4.8 8.0 0.00 0.00 0.00 52 1014.3
20260505213628 23 49 4.8 9.7 0.00 0.00 0.00 51 1014.2
20260505213124 23 139 3.2 17.7 0.00 0.00 0.00 51 1014.3
20260505212620 23 213 1.6 8.0 0.00 0.00 0.00 50 1014.3
20260505212118 23 204 3.2 8.0 0.00 0.00 0.00 50 1014.2
20260505211615 23 81 1.6 14.5 0.00 0.00 0.00 51 1014.2
20260505211112 23 261 9.7 9.7 0.00 0.00 0.00 50 1014.2
20260505210609 24 239 6.4 9.7 0.00 0.00 0.00 50 1014.2
20260505210106 23 244 4.8 12.9 0.00 0.00 0.00 50 1014.1
20260505205603 23 198 3.2 14.5 0.00 0.00 0.00 51 1014.1
20260505205101 24 190 6.4 9.7 0.00 0.00 0.00 51 1014.3
20260505204558 23 233 6.4 12.9 0.00 0.00 0.00 50 1014.3
20260505204055 24 101 3.2 16.1 0.00 0.00 0.00 49 1014.4
20260505203551 23 265 6.4 12.9 0.00 0.00 0.00 50 1014.4
20260505203049 24 238 8.0 14.5 0.00 0.00 0.00 48 1014.6
20260505202544 24 267 3.2 9.7 0.00 0.00 0.00 50 1014.4
20260505202041 24 250 16.1 17.7 0.00 0.00 0.00 47 1014.5
20260505201538 23 220 6.4 24.1 0.00 0.00 0.00 49 1014.5
20260505201036 24 280 12.9 19.3 0.00 0.00 0.00 48 1014.5
20260505200533 25 224 1.6 9.7 0.00 0.00 0.00 48 1014.5
20260505200030 25 90 3.2 11.3 0.00 0.00 0.00 48 1014.5
20260505195526 25 219 3.2 14.5 0.00 0.00 0.00 46 1014.6
20260505195023 24 162 6.4 22.5 0.00 0.00 0.00 47 1014.6
20260505194515 24 150 3.2 12.9 0.00 0.00 0.00 49 1014.8
20260505194015 25 270 8.0 17.7 0.00 0.00 0.00 46 1014.7
20260505193513 25 115 6.4 17.7 0.00 0.00 0.00 48 1014.7
20260505193010 26 222 11.3 27.4 0.00 0.00 0.00 44 1014.9
20260505192509 26 268 3.2 9.7 0.00 0.00 0.00 44 1015.0
20260505192006 25 251 9.7 12.9 0.00 0.00 0.00 45 1014.7
20260505191504 25 298 4.8 30.6 0.00 0.00 0.00 46 1014.9
20260505191002 25 200 9.7 17.7 0.00 0.00 0.00 44 1014.8
20260505190456 26 239 8.0 9.7 0.00 0.00 0.00 44 1014.9
20260505185952 25 316 6.4 19.3 0.00 0.00 0.00 45 1015.0
20260505185450 26 194 1.6 12.9 0.00 0.00 0.00 46 1015.4
20260505184945 26 198 4.8 9.7 0.00 0.00 0.00 42 1015.2
20260505184442 26 65 8.0 17.7 0.00 0.00 0.00 43 1015.1
20260505183939 26 78 3.2 17.7 0.00 0.00 0.00 43 1015.3
20260505183436 26 353 9.7 9.7 0.00 0.00 0.00 41 1015.3
20260505182933 25 240 1.6 22.5 0.00 0.00 0.00 44 1015.1
20260505182430 26 98 6.4 11.3 0.00 0.00 0.00 41 1015.3
20260505181926 26 326 6.4 12.9 0.00 0.00 0.00 42 1015.4
20260505181424 26 341 0.0 8.0 0.00 0.00 0.00 43 1015.3
20260505180920 26 189 1.6 9.7 0.00 0.00 0.00 45 1015.3
20260505180416 27 321 4.8 9.7 0.00 0.00 0.00 43 1015.4
20260505175913 26 310 4.8 9.7 0.00 0.00 0.00 43 1015.4
20260505175409 26 206 6.4 11.3 0.00 0.00 0.00 42 1015.7
20260505174906 26 263 8.0 12.9 0.00 0.00 0.00 43 1015.6
20260505174404 25 219 6.4 14.5 0.00 0.00 0.00 45 1015.4
20260505173859 25 259 3.2 9.7 0.00 0.00 0.00 46 1015.7
20260505173356 25 304 6.4 14.5 0.00 0.00 0.00 44 1015.6
20260505172853 25 254 3.2 16.1 0.00 0.00 0.00 45 1015.6
20260505172351 25 228 8.0 11.3 0.00 0.00 0.00 44 1015.7
20260505171850 26 215 3.2 6.4 0.00 0.00 0.00 46 1015.9
20260505171347 26 219 14.5 20.9 0.00 0.00 0.00 44 1015.7
20260505170844 25 189 3.2 6.4 0.00 0.00 0.00 45 1015.8
20260505170341 25 260 4.8 14.5 0.00 0.00 0.00 44 1015.9
20260505165836 25 261 6.4 6.4 0.00 0.00 0.00 48 1015.8
20260505165332 26 162 4.8 8.0 0.00 0.00 0.00 45 1015.9
20260505164828 25 334 8.0 17.7 0.00 0.00 0.00 45 1016.1
20260505164325 25 4 6.4 12.9 0.00 0.00 0.00 46 1016.0
20260505163823 25 196 4.8 8.0 0.00 0.00 0.00 49 1016.2
20260505163321 24 80 3.2 8.0 0.00 0.00 0.00 49 1016.1
20260505162814 24 292 3.2 8.0 0.00 0.00 0.00 49 1016.5
20260505162310 24 71 4.8 16.1 0.00 0.00 0.00 47 1016.5
20260505161807 24 333 6.4 11.3 0.00 0.00 0.00 48 1016.7
20260505161305 23 172 1.6 12.9 0.00 0.00 0.00 49 1016.6
20260505160802 24 306 1.6 9.7 0.00 0.00 0.00 49 1016.6
20260505160300 23 212 6.4 8.0 0.00 0.00 0.00 50 1016.6
20260505153238 23 225 6.4 9.7 0.00 0.00 0.00 49 1016.8
20260505152735 24 231 8.0 9.7 0.00 0.00 0.00 47 1016.8
20260505152231 23 244 3.2 6.4 0.00 0.00 0.00 49 1017.2
20260505151726 23 130 1.6 6.4 0.00 0.00 0.00 50 1016.9
20260505151224 22 180 4.8 14.5 0.00 0.00 0.00 51 1017.0
20260505150720 22 245 1.6 4.8 0.00 0.00 0.00 53 1017.3
20260505150218 22 224 4.8 8.0 0.00 0.00 0.00 54 1017.4